Terminal Aerodrome Forecast
Issued by NWS

Home | Current Version | Previous Version | Graphics & Text | Print | Product List | Glossary On
Versions: 1 2 3 4 5 6 7 8 9 10 11 12 13 14 15 16 17 18
914
FTUS43 KMPX 092104 AAA
TAFAXN
TAF AMD
KAXN 092104Z 0921/1018 31007KT P6SM OVC018
      TEMPO 0921/0924 4SM -SHSN
     FM101000 33003KT P6SM SCT015 BKN150
     FM101500 VRB03KT P6SM SCT025 OVC080=

USA.gov is the U.S. government's official web portal to all federal, state and local government web resources and services.